Find Starlink 35502

NORAD ID: 66435 Int'l Des: 2025-259 Owner: SPXS Country: US Constellation: starlink operational
LEOCIRCULAR

当前视图

正在加载3D地球...

About Starlink 35502

Starlink 35502 (NORAD 66435) is a starlink constellation satellite (v2 mini) launched Nov 11, 2025 by SPXS of US. It operates in LEO, CIRCULAR orbit with a mass of 575.00 kg.

关于 Starlink 35502

正在加载描述...

即将过境

Passes for default location (London). Set your location on the main map for personalized predictions.

高度历史

Loading altitude history...

两行轨道根数

1 66435U 25259P 26194.28396065 .00008627 00000-0 32254-3 0 9990
2 66435 42.9921 284.6700 0001473 177.9741 182.1117 15.27590308 38700
Epoch: Jul 13, 2026 • Age: 21 hours

当前状态

高度 486.1 km
远地点 / 近地点 N/A
速度 7.63 km/s
星下点 41.83°N, 7.19°E
发射日期 Nov 11, 2025
运行时间 0.6 years
类型 internet

技术详情

分类 Payload
质量 575.00 kg
干质量 530.00 kg
总质量 575.00 kg
长度 0.30 m
直径 4.10 m
跨度 29.00 m
形状 Box + pan
制造商 SPXS
平台类型 Starlink V2MO
阶段状态 In Orbit
所有者/国家 SPXS/US

Most Searched